Location: SWAOG Dark Site
(41.6289°N, 88.5397°W)
Time: 12:28:25
(UTC-05:00)

ISS - Visible Passes

Search period start: 22 June 2021 00:00
Search period end: 02 July 2021 00:00
Orbit: 417 x 422 km, 51.6° (Epoch: 22 June)

Date Brightness Start Highest point End Pass type
(mag) Time Alt. Az. Time Alt. Az. Time Alt. Az.
26 Jun -1.8 04:10:52 10° S 04:13:22 20° SE 04:15:56 10° E visible
27 Jun -1.3 03:25:18 11° SE 03:26:05 12° SE 03:27:28 10° ESE visible
28 Jun -3.5 04:12:37 17° SW 04:15:00 59° SE 04:18:20 10° ENE visible
29 Jun -2.8 03:26:56 30° SSE 03:27:37 34° SE 03:30:43 10° ENE visible
30 Jun -1.6 02:41:11 18° ESE 02:41:11 18° ESE 02:42:51 10° E visible
30 Jun -3.1 04:14:08 14° WSW 04:16:52 50° NNW 04:20:10 10° NE visible
01 Jul -3.8 03:28:19 41° WSW 03:29:22 81° NNW 03:32:44 10° NE visible
